COSMOS 2251 DEB, 33818

Orbit data source: Space-Track

COSMOS 2251 DEB, 33818 is space debris in LEO originally from a launch on Wed, 16 Jun 1993 UTC launched from the Plesetsk Missile And Space Complex (PKMTR). The debris from Iridium 33, an American commercial communications satellite, has been tracked extensively since its accidental collision with the defunct Russian satellite Cosmos 2251 in 2009. This event, occurring at high speed in low Earth orbit (LEO), generated thousands of pieces of space debris, significantly increasing the risk of further collisions. The Iridium 33 debris cloud has impacted space traffic management and orbital debris mitigation strategies, making it a subject of ongoing study in space situational awareness.

Loading next visibility...
Identifier
33818, 1993-036BK
Orbit
LEO
Country
Flag of CISCIS
Related business
Manufacturer
Unknown
Mission
Spacecraft
Bus & Motor
Unknown
Mass
Unknown
Launch date (UTC)
1993-06-16 (33 years ago)
Launch vehicle
Unknown
Launch site
Plesetsk Missile And Space Complex (PKMTR)
Object type
Payload
Rocket body
Debris
Shape & HBR
Unknown shape, 0.1 m
Radar Cross Section
Medium (>0.1 m² and <1 m²)

Expand to show TLE details & history
Last TLE update: 4 hours ago

TLE from 4 hours ago
0 COSMOS 2251 DEB
1 33818U 93036BK  26236.62267112  .00109250  00000-0  22326-2 0  9994
2 33818  74.0709 347.0812 0008649 288.3250  71.7020 15.45636620937545
Epoch: 2026-08-24T14:56Z
TLE epoch observation values (Epoch: 2026-08-24T14:56:38.784Z)
Latitude
-0.00003°
Longitude
150.01787°
Altitude
430.408 km
Speed
7.655 km/s
True Right ascension
23h 08m 19s
True Declination
0° 00' 00"
Sunlit
Object was in full shadow at epoch
Visualization orbit readout
Latitude
Unknown
Longitude
Unknown
Altitude
Unknown
Speed
Unknown
Apparent Right ascension
Unknown
Apparent Declination
Unknown
Sunlit
N/A
Visualization observer readout
Local Sidereal Time
10:21:46
Azimuth
Unknown
Elevation
Unknown
Doppler factor
Unknown
Orbital elements
Apogee altitude
432.895 km
Perigee altitude
421.123 km
Semi-major axis
6,805.146 km
Eccentricity
0.00086
Inclination
74.0709°
RAAN
347.0812°
Arg. of periapsis
288.325°
True anomaly
71.79613°
Mean anomaly
71.702°
Eccentric anomaly
71.74906°
Mean motion
3.86622 °/min
Orbital period
93.11 mins
BSTAR
0.0022326
Loading maneuver chart data...
Computing Atmospheric mass density...

Documentation

Showing up to 5 results
|